Погода в Олешках

Украина / Херсонская область     46°36′50″N   32°43′04″E
темп.,
°C
ветер,
м/с
пор.,
м/с
влажн.,
%
обл.,
%
осадки,
мм/ч
давл.,
гПа
погр.,
м
9 мая, вс
вс900:00+9ссз713650 0.0 1017641
03:00+7ссз611721 0.0 1019508
06:00+6сз511780 0.0 1021403
09:00+10ссз78535 0.0 10231032
12:00+14ссз78365 0.0 10232012
15:00+16ссз6729100 0.0 10243098
18:00+15ссз673262 0.0 10252388
21:00+11з235080 0.0 102779
10 мая, пн
пн1000:00+9ссв225851 0.0 102727
03:00+8ссв33625 0.0 102729
06:00+7ссв33664 0.0 102840
09:00+13ссв34480 0.0 1028753
12:00+16с56335 0.0 10272121
15:00+18с56295 0.0 10252317
18:00+17с67315 0.0 10242246
21:00+12с35474 0.0 102493
11 мая, вт
вт1100:00+10ссз47520 0.0 1022118
03:00+9ссз49620 0.0 1021189
06:00+8сз51267100 0.0 1020317
09:00+11ссз6105699 0.0 1018618
12:00+14с775891 0.0 1017815
15:00+14с6866100 0.0 1016719
18:00+13ссв3874100 0.0 1016515
21:00+12ссз2582100 0.1 1015207
12 мая, ср
ср1200:00+9св22881 0.0 101532
03:00+7св34855 0.0 101369
06:00+6св338552 0.0 101366
09:00+12в226336 0.0 1013567
12:00+16юз234669 0.0 10121844
15:00+18юз554047 0.0 10122160
18:00+15ююз546660 0.0 1013754
21:00+12ююз33850 0.0 101359
13 мая, чт
чт1300:00+10ююв22875 0.0 101334
03:00+10в3388100 0.0 101238
06:00+10в47955 0.0 1011163
09:00+16вюв695896 0.0 1011663
12:00+22юв6743100 0.0 10101294
15:00+23ююз6635100 0.0 10091332
18:00+19ююз674054 0.0 1010545
21:00+14ююз3469100 0.0 101066